Location: Dresden
(51.0500°N, 13.7500°E)
Time: 06:14:17
(UTC+00:00)

ISS - Visible Passes

Search period start: 12 December 2017 00:00
Search period end: 22 December 2017 00:00
Orbit: 403 x 407 km, 51.6° (Epoch: 12 December)

Date Brightness Start Highest point End Pass type
(mag) Time Alt. Az. Time Alt. Az. Time Alt. Az.
12 Dec -3.5 16:19:56 10° W 16:23:13 68° SSW 16:26:01 13° ESE visible
12 Dec -1.1 17:56:53 10° W 17:58:42 18° SW 17:58:42 18° SW visible
13 Dec -2.0 17:04:22 10° W 17:07:16 29° SSW 17:09:07 17° SSE visible
14 Dec -2.6 16:12:01 10° W 16:15:10 42° SSW 16:18:18 10° SE visible
14 Dec -0.6 17:50:36 10° SW 17:50:59 10° SW 17:51:22 10° SW visible
15 Dec -0.9 16:56:51 10° W 16:59:01 16° SW 17:01:10 10° S visible
16 Dec -1.4 16:04:12 10° W 16:06:58 25° SSW 16:09:43 10° SSE visible
18 Dec -0.5 15:56:48 10° WSW 15:58:36 14° SW 16:00:23 10° S visible
